{"data":{"norad_id":66659,"intl_designator":"2025-274K","name":"JACK K","alt_names":[],"object_type":"PAYLOAD","status":"ACTIVE","operator":null,"country":"SKOR","launch_date":"2025-11-26","launch_site_code":"NSC","launch_vehicle":null,"mission":null,"orbit_class":"UNKNOWN","rcs_meters":null,"size_class":null,"mass_kg":null,"dimensions":null,"purposes":[],"wikipedia_slug":null,"has_3d_model":false,"image_url":null,"decayed_at":null,"tle_current":{"epoch":"2026-05-24T18:23:50.528256Z","epoch_age_seconds":98485,"freshness":"FRESH","line1":"1 66659U 25274K   26144.76655704  .00001655  00000+0  16138-3 0  9997","line2":"2 66659  97.7485  74.4912 0015042  95.1592 265.1345 14.93726275 26734","mean_motion":14.93726275,"eccentricity":0.0015042,"inclination_deg":97.7485,"raan_deg":74.4912,"arg_perigee_deg":95.1592,"mean_anomaly_deg":265.1345,"bstar":0.00016138,"rev_number":2673,"period_min":96.403204797345,"perigee_km":575.8531332712,"apogee_km":596.80503303576,"semimajor_km":6964.4660831535,"source":"CELESTRAK","updated_at":"2026-05-25T13:38:06.382173Z"}}}